RH
50 28 23 16 15 15 15 20 50 51 49 58 50 47 62 74 72 70 72 67 63 81 68 71 93 93 91 91 92 92 91 89 89 91 92 92 90 90 91 90 87 82 77 76 76 76 75 78 83
40 23 17 16 15 12 20 60 54 63 60 55 60 60 66 87 74 77 68 69 72 77 70 69 94 93 93 92 92 92 89 89 90 90 90 90 88 88 89 91 89 85 77 78 78 79 81 84 87
25 20 16 18 31 20 34 68 72 67 60 60 71 65 69 84 69 71 67 73 77 72 71 73 95 94 92 93 93 93 93 93 93 92 88 87 87 88 89 92 90 85 77 74 76 79 83 86 87
14 15 38 20 45 73 71 71 68 66 64 61 62 81 79 74 69 69 78 73 73 77 74 86 96 94 92 92 92 92 93 93 93 93 91 87 87 88 89 92 91 84 81 79 79 81 84 87 86
15 21 43 54 74 73 71 63 63 70 72 68 60 84 88 73 77 70 78 69 80 82 79 74 96 94 92 91 92 93 94 93 93 92 91 89 86 86 89 92 92 89 85 82 82 83 85 85 84
16 30 38 39 73 72 70 66 65 69 70 70 72 74 94 79 76 77 73 80 82 88 85 79 89 94 93 92 93 94 94 94 94 93 91 88 88 88 88 88 90 90 90 88 86 85 85 86 86
16 22 35 56 72 81 70 65 69 63 62 64 58 75 93 89 83 77 76 79 83 87 89 87 82 85 96 96 95 95 95 95 94 93 91 90 90 90 89 87 86 87 87 87 86 86 87 86 87
18 23 53 59 73 71 66 67 70 66 71 62 56 76 91 90 78 73 72 70 74 77 78 80 80 79 79 79 96 97 94 93 95 93 94 94 92 94 89 89 88 87 88 88 89 89 88 86 85
18 32 44 51 66 53 56 67 61 66 72 70 67 60 74 79 70 70 73 70 68 71 78 81 78 77 78 78 86 88 88 90 93 88 92 83 80 80 76 95 96 94 93 93 92 91 91 92 88
15 22 36 34 48 49 56 60 64 76 77 78 81 75 75 72 72 73 72 70 69 71 74 82 82 85 81 77 83 82 73 77 84 82 80 71 80 80 74 82 92 91 93 91 92 92 89 79 58
20 16 20 37 44 44 57 62 61 68 79 70 85 87 75 69 68 73 70 63 63 70 81 87 91 89 86 81 80 79 71 71 80 86 80 78 72 72 67 66 65 69 76 63 65 64 60 69 64
17 31 40 44 49 52 60 56 68 64 69 65 81 75 70 71 68 65 62 57 66 72 76 84 86 89 88 78 75 74 74 80 75 76 79 75 69 73 73 78 78 76 73 76 78 74 79 76 76
25 48 49 48 51 53 53 63 66 66 76 69 70 67 71 76 71 67 60 52 62 70 78 84 82 85 83 85 82 81 80 80 83 82 81 80 81 83 75 70 70 67 71 73 75 76 65 64 68
45 48 46 46 48 50 58 52 57 65 74 74 72 78 78 76 75 72 70 67 64 69 77 81 78 81 78 83 84 80 81 81 78 73 71 74 72 76 72 69 64 59 58 58 59 58 54 57 60
43 48 44 45 48 52 44 53 58 60 70 77 79 76 78 77 73 72 72 68 65 76 85 81 78 74 73 74 74 76 72 64 62 61 71 70 68 69 64 58 60 59 57 55 52 52 52 54 60
45 49 54 44 43 43 44 57 59 59 68 77 74 69 71 73 68 66 65 63 60 70 86 79 67 69 70 70 63 61 63 61 57 58 60 67 66 67 64 56 59 60 55 50 47 51 50 63 68
47 52 56 51 37 40 43 52 52 55 65 71 68 66 62 62 63 61 59 69 77 74 84 78 75 72 67 66 60 62 66 58 56 56 57 67 65 65 58 56 61 61 52 52 48 49 64 68 65
54 56 54 54 41 40 44 47 50 52 62 63 62 57 57 59 61 63 60 55 61 82 90 85 74 69 68 62 62 56 56 58 55 55 60 64 60 59 52 52 60 51 47 48 48 54 59 67 57
44 48 47 48 39 45 46 44 49 46 54 59 56 53 53 55 55 53 56 54 52 66 81 80 73 72 61 55 55 55 59 57 55 55 64 62 58 56 54 47 52 49 50 57 57 52 58 58 64
44 48 50 46 40 40 48 47 46 45 46 49 52 50 49 52 52 52 53 52 52 65 72 72 68 64 58 54 53 54 56 58 54 55 60 58 58 52 52 54 52 56 48 57 59 59 48 51 59
45 46 53 48 42 42 44 48 48 43 42 45 46 44 45 47 51 51 50 52 51 59 70 67 66 66 60 62 60 61 56 53 51 50 50 56 56 52 54 56 56 56 51 53 56 57 59 46 50
42 38 42 45 46 53 40 57 48 44 44 47 46 48 47 46 46 46 45 50 49 52 61 62 61 63 60 58 58 55 50 54 61 54 52 53 58 55 47 53 55 58 52 57 53 54 57 49 49
28 37 41 42 45 47 48 49 39 42 47 43 43 44 46 46 46 46 44 43 44 52 55 60 60 57 62 60 59 59 61 62 60 59 59 62 62 57 48 50 53 54 49 59 61 59 59 56 55
35 39 42 43 46 62 46 46 46 47 46 39 36 39 45 46 45 44 45 47 48 50 55 58 58 57 61 64 63 61 64 64 61 61 60 58 58 57 54 52 53 53 52 55 55 59 62 60 60
32 40 58 62 69 57 50 50 40 37 38 35 36 36 44 46 46 46 47 46 50 54 58 57 55 58 61 63 62 60 60 58 59 58 56 58 56 59 62 57 56 50 55 56 56 59 63 62 61
39 36 51 54 61 50 50 56 38 33 30 32 32 34 43 47 47 45 44 47 49 55 56 55 54 59 60 63 64 62 59 52 54 56 56 58 56 58 65 60 59 59 56 56 56 53 54 61 61
38 44 33 54 57 55 47 49 36 36 33 36 38 42 48 46 46 45 45 50 51 54 58 59 55 55 58 60 63 63 63 62 58 62 60 58 60 58 65 60 60 60 60 59 56 55 58 58 61
29 32 48 54 74 59 54 46 40 44 40 42 43 45 47 46 45 45 46 52 49 52 59 62 57 55 58 61 61 60 61 62 63 63 61 60 61 61 65 63 61 60 60 59 56 54 59 58 57
35 36 52 49 51 45 56 48 41 38 39 44 44 42 46 46 46 47 46 49 49 52 56 62 59 58 60 60 62 64 62 64 63 62 61 60 64 61 61 62 60 59 60 60 58 56 59 59 59
27 33 35 64 77 65 71 64 35 40 40 42 40 42 45 44 44 45 48 50 52 54 56 60 62 61 62 60 62 64 64 63 62 61 61 63 60 61 59 61 59 59 60 61 60 59 59 59 60
Wind_Speed
5 2 2 1 2 1 3 3 2 4 5 2 5 1 11 11 4 4 4 6 12 9 10 10 8 7 6 9 10 11 10 11 11 10 10 9 9 9 9 8 8 8 10 11 11 11 11 11 10
2 3 0 2 2 3 3 1 5 3 9 13 11 8 8 5 5 8 5 6 9 8 8 7 7 6 5 8 9 11 11 10 10 9 10 10 9 9 9 8 8 8 9 9 10 11 10 9 8
4 1 2 2 3 3 4 2 7 8 6 5 6 7 5 3 3 4 8 8 8 10 7 7 5 6 6 7 8 9 10 9 9 8 9 9 9 9 8 8 8 7 8 8 9 9 8 7 6
2 2 3 1 3 2 2 10 14 15 9 7 14 11 6 3 3 6 7 9 11 8 6 6 7 7 6 7 9 10 10 9 8 8 7 8 8 8 8 8 8 9 9 8 7 7 6 5 4
3 1 3 2 1 2 6 10 6 7 7 12 6 8 5 3 5 9 10 10 12 8 6 6 6 7 7 7 8 9 9 9 8 8 7 7 7 7 8 8 7 8 8 7 7 6 6 6 6
3 0 3 5 4 4 4 4 9 12 16 16 14 11 5 6 7 6 10 10 10 8 7 7 8 7 7 7 8 8 9 9 9 8 7 7 7 7 7 7 7 7 6 6 5 4 3 3 3
4 2 4 6 9 7 6 2 10 15 13 6 16 10 6 10 8 8 12 11 10 7 7 6 6 7 8 8 7 9 10 9 9 8 8 8 8 7 5 5 5 5 5 5 5 5 4 4 4
4 3 7 5 12 7 8 6 3 4 3 6 3 8 10 10 13 11 11 13 10 8 8 6 5 5 7 7 10 14 13 11 12 11 10 9 7 8 7 5 5 5 5 5 6 6 6 5 5
2 3 6 10 12 7 10 7 3 2 8 2 2 9 16 18 16 14 10 11 11 9 7 6 5 6 7 8 9 10 11 12 11 9 11 7 6 8 9 12 11 9 8 7 6 5 5 5 3
1 4 11 6 9 9 13 11 11 7 6 3 8 15 21 20 13 15 13 9 8 9 7 5 6 7 7 6 7 6 7 7 7 7 7 5 6 7 6 8 11 10 8 8 7 8 5 3 4
3 3 5 6 6 15 14 9 4 14 7 5 14 16 16 14 14 12 7 10 10 6 7 5 7 7 7 6 5 3 3 4 5 8 7 6 4 5 5 4 4 6 8 5 5 5 4 6 5
3 1 4 6 7 10 14 11 9 9 1 10 15 16 15 14 13 13 10 9 11 9 8 6 7 8 8 6 5 6 5 5 5 7 8 5 4 5 6 5 6 5 5 6 5 4 5 7 7
2 3 4 8 12 10 10 7 6 5 7 19 16 15 14 12 14 11 10 9 8 10 8 7 8 7 8 9 6 7 6 6 6 6 8 5 5 5 5 5 5 5 5 5 4 5 5 6 6
4 7 7 7 12 6 12 6 3 3 13 17 17 16 14 13 9 10 9 8 7 8 9 9 10 9 10 9 9 6 6 6 6 6 7 8 5 5 5 5 6 6 6 5 5 6 5 5 5
7 8 7 6 3 6 13 5 3 9 10 15 15 15 14 13 9 8 8 7 6 6 9 10 10 11 10 10 8 7 7 7 7 7 9 10 8 8 7 6 6 6 5 6 6 6 5 5 6
6 4 9 2 1 4 6 10 7 9 13 13 14 12 15 12 12 9 8 7 7 5 8 9 9 12 10 11 9 8 7 8 7 7 8 10 10 9 8 7 6 6 5 6 7 6 5 6 8
3 8 5 7 1 4 3 6 12 11 11 12 12 11 11 10 12 11 8 7 6 5 8 10 10 11 12 11 9 10 9 8 7 7 8 10 10 10 8 7 7 6 6 7 7 7 5 6 8
7 7 3 9 8 4 5 6 14 13 13 13 12 12 11 9 7 10 9 7 9 6 3 10 8 12 10 8 8 8 8 7 7 8 8 9 8 9 8 8 9 7 7 7 8 9 7 6 5
11 12 13 3 6 8 7 7 16 14 14 15 13 12 11 10 7 6 10 7 9 8 12 12 12 9 7 6 6 6 7 7 8 8 10 10 10 10 9 8 9 8 9 9 8 8 11 8 4
13 14 9 4 8 5 4 4 12 13 14 16 15 14 14 13 12 10 9 9 9 11 10 10 12 10 6 5 6 4 6 7 7 7 10 10 11 10 10 10 9 10 9 11 11 9 5 8 9
9 15 12 9 8 4 10 3 9 13 9 13 15 14 16 18 17 14 12 12 11 12 13 11 12 10 8 10 9 8 9 5 6 6 7 9 11 11 12 11 10 10 9 9 10 11 9 7 9
11 13 16 18 16 8 9 8 9 17 17 14 17 18 18 17 14 14 14 13 12 10 11 12 11 8 9 11 10 10 7 7 4 6 7 8 10 11 12 11 11 9 8 9 9 9 9 8 7
9 16 17 17 16 8 9 6 5 11 15 21 22 21 20 18 17 17 15 14 12 11 11 11 11 12 10 8 9 9 10 9 6 6 8 9 9 11 11 11 10 9 7 9 10 10 10 8 8
17 15 9 6 4 8 12 12 6 10 24 24 23 21 21 21 18 16 13 13 11 10 10 11 12 10 9 8 9 11 13 11 8 7 6 6 6 6 9 10 9 9 8 9 8 8 9 8 8
12 18 6 6 6 5 3 10 9 13 13 23 24 24 23 20 19 18 18 15 13 12 12 11 12 11 10 9 9 10 11 11 10 8 6 6 5 5 7 8 9 8 9 8 7 7 8 8 8
14 16 7 11 6 6 4 8 6 11 15 18 14 17 19 22 20 19 19 17 16 14 13 13 13 12 11 10 9 8 9 7 7 7 6 5 5 5 7 8 7 8 8 8 7 6 6 7 7
11 12 10 8 3 4 6 4 7 11 9 11 15 18 22 24 23 23 21 18 17 15 15 14 13 12 12 12 10 9 8 9 8 9 7 5 6 6 7 6 7 8 9 8 8 7 7 7 6
14 13 10 3 10 7 5 5 9 6 14 9 15 20 20 20 21 21 20 19 16 15 14 13 13 14 13 12 10 9 9 9 8 8 8 7 6 6 7 7 6 7 8 8 8 7 7 7 6
7 13 2 6 3 9 5 5 8 14 10 16 18 18 20 22 22 21 20 18 17 16 15 14 14 14 12 12 11 10 9 9 8 7 8 7 7 7 6 6 6 7 7 7 8 7 7 7 7
12 11 15 9 8 2 3 5 1 5 6 11 13 14 15 18 19 19 19 20 18 17 16 16 15 14 13 12 11 10 9 9 8 8 7 7 7 6 6 6 6 6 6 6 7 7 6 7 8
Wind_Direction
319 329 193 68 216 309 142 144 295 145 128 31 99 170 113 45 10 73 106 110 127 116 131 145 147 136 140 126 115 103 97 96 93 87 82 81 80 80 77 79 86 92 99 100 96 97 102 105 106
267 134 31 97 188 174 165 195 171 63 115 107 80 96 70 73 32 102 104 88 102 116 128 144 145 128 132 117 116 111 106 96 87 81 81 79 77 73 72 66 76 85 98 102 99 97 90 79 67
168 134 222 124 139 202 167 173 134 113 117 108 101 53 70 63 81 94 105 117 103 111 122 136 140 125 118 109 108 106 107 102 93 89 88 84 81 76 68 57 54 73 88 95 97 97 97 99 99
164 141 102 244 194 134 141 141 135 126 90 74 116 80 93 8 335 103 103 121 105 96 114 119 116 112 104 104 105 102 97 93 92 87 84 84 81 78 73 65 57 57 54 53 60 68 69 64 56
53 103 120 125 124 146 137 146 174 138 102 124 124 116 78 48 99 95 86 100 99 94 96 97 100 111 104 101 94 93 94 88 78 71 63 63 65 63 59 53 57 61 62 62 60 54 47 34 20
121 215 160 198 142 149 146 132 127 122 126 119 110 110 99 118 105 91 85 74 74 83 77 84 85 83 96 95 88 86 83 80 71 62 56 57 58 53 59 66 61 56 52 50 49 45 35 22 12
160 158 148 137 145 164 171 141 148 147 148 142 137 111 113 116 111 109 94 80 64 62 65 67 84 95 82 64 75 74 67 64 59 47 40 33 33 36 40 50 55 56 51 42 35 28 15 2 351
120 108 137 162 173 184 175 146 141 176 119 130 164 146 159 143 127 109 107 101 88 74 70 61 77 91 94 95 67 65 59 53 53 45 35 37 42 23 29 11 40 32 32 28 20 9 360 344 327
149 121 171 173 172 152 165 157 104 134 151 209 177 153 131 137 137 119 114 114 108 84 71 75 92 89 95 87 72 64 57 48 48 47 39 51 51 45 56 46 49 44 42 40 26 16 358 332 282
165 185 192 181 167 160 160 166 140 150 158 108 101 120 132 130 137 138 138 119 96 95 79 76 106 96 98 89 76 65 59 56 49 45 41 52 57 60 59 54 45 36 34 48 36 27 13 347 359
176 179 166 185 161 153 147 140 123 151 177 167 146 135 128 139 129 108 87 109 103 85 79 61 84 87 95 91 82 69 52 58 58 45 36 45 51 42 47 37 33 21 13 17 11 14 19 8 357
157 105 167 130 147 137 151 132 123 163 2 148 119 123 125 115 100 103 100 80 95 85 70 71 83 85 81 87 76 73 65 52 48 40 36 34 36 38 43 32 20 21 5 7 5 6 6 16 14
141 153 73 110 108 96 116 99 118 64 114 125 127 129 119 103 101 89 89 91 98 92 80 69 77 81 86 83 72 65 55 47 47 41 36 41 53 47 37 43 39 25 4 7 14 10 12 26 23
99 95 105 104 114 100 123 100 147 89 128 122 127 125 116 112 111 110 90 74 83 95 88 85 80 78 80 73 69 67 62 53 45 44 37 43 52 60 56 45 32 37 19 11 17 20 20 34 32
123 107 87 72 103 115 121 112 81 141 140 128 136 128 127 133 133 117 113 113 92 90 103 98 92 88 87 88 83 77 70 71 61 54 47 50 48 53 54 49 44 33 24 17 28 29 36 50 69
110 116 158 128 122 138 224 171 150 153 142 139 140 143 136 138 129 113 105 100 83 104 105 100 101 92 88 84 80 77 69 71 65 61 58 53 54 54 61 57 44 28 37 35 37 22 46 65 79
31 161 166 160 26 132 211 136 163 160 149 149 145 147 138 139 135 120 117 108 80 66 118 111 107 114 95 92 90 83 78 73 69 61 56 53 55 53 62 58 44 34 46 42 37 39 36 77 94
157 145 171 172 174 149 164 129 157 163 165 160 166 159 155 160 156 139 132 137 133 139 130 116 127 105 106 104 99 93 85 74 66 59 56 52 54 52 59 62 51 42 46 48 48 49 59 69 69
150 154 176 157 166 157 193 161 171 163 171 175 179 173 163 159 147 153 135 141 126 142 160 153 129 129 135 133 124 107 90 79 67 66 61 61 60 54 55 57 53 51 49 44 39 60 51 53 32
152 155 168 99 146 179 178 178 174 181 186 185 179 185 174 160 160 159 159 152 155 152 154 149 143 156 160 136 118 107 100 83 81 76 64 64 64 62 65 57 54 48 50 43 41 40 62 55 33
180 174 168 158 145 78 151 187 193 199 195 193 201 198 188 180 173 171 167 161 151 155 162 160 161 160 156 128 116 109 107 109 89 78 75 65 69 64 65 62 58 52 53 46 42 38 45 60 54
195 194 159 143 160 188 206 216 208 204 203 203 203 203 196 187 178 173 169 163 157 156 158 162 159 146 144 147 140 137 127 117 99 88 82 77 70 68 65 64 58 56 56 51 46 43 44 43 52
204 158 160 172 174 156 193 238 152 194 208 217 212 210 202 191 184 181 177 164 155 154 157 162 160 156 151 152 143 126 118 114 110 104 98 86 76 70 67 66 66 61 60 62 53 49 46 48 56
136 120 96 119 169 218 190 211 185 183 210 218 217 211 196 190 190 183 171 158 153 151 148 154 156 148 149 151 137 128 128 128 126 120 104 90 85 88 74 72 67 64 64 63 60 61 56 57 59
165 155 140 184 202 217 168 206 240 211 218 214 210 204 194 185 185 181 172 170 163 163 154 157 160 151 149 144 135 135 129 130 129 130 122 123 105 94 90 76 66 60 61 65 68 68 61 53 53
182 182 178 190 189 186 160 224 224 213 219 217 217 198 183 183 185 182 178 174 170 165 162 161 162 151 146 144 137 132 137 136 131 129 127 112 110 106 107 88 81 73 66 64 64 64 57 53 49
180 205 159 104 52 164 200 252 271 233 226 200 189 172 184 186 184 182 178 175 169 168 167 167 164 155 152 150 147 146 149 145 138 132 126 125 123 115 117 114 98 78 66 56 57 56 49 51 45
199 145 177 152 168 205 191 239 234 215 217 195 188 190 190 188 185 181 176 172 170 168 164 167 169 163 156 153 151 151 153 143 137 140 137 134 126 126 142 139 106 82 66 56 53 51 48 49 40
160 190 108 131 166 204 179 228 216 223 208 200 205 197 186 185 183 177 173 171 167 166 166 170 168 163 162 159 154 154 155 145 148 145 138 139 141 151 144 135 107 86 72 55 53 55 46 42 32
201 193 185 188 186 171 183 231 208 240 229 202 197 189 185 184 179 177 169 167 168 169 171 173 171 169 169 164 158 158 152 154 153 149 148 155 155 150 128 127 120 105 86 65 51 48 41 30 20